EW9539 Weather Reports


time (UTC)temp
F
wind
direction
speed
knots
gust
knots
rain 1hr
in
rain 24hr
in
rain mn
in
humidity
%
barometer
mb
20260505151546 74 333 3.5 10.4 0.00 0.00 0.00 47 1009.0
20260505124522 69 340 1.7 7.0 0.00 0.00 0.00 54 1009.4
20260505123022 67 56 0.0 3.5 0.00 0.00 0.00 58 1009.5
20260505121513 66 13 0.9 5.2 0.00 0.00 0.00 58 1009.8
20260505120009 64 67 0.9 3.5 0.00 0.00 0.00 61 1009.8
20260505114508 63 355 0.9 2.6 0.00 0.00 0.00 61 1009.7
20260505113005 63 282 0.9 6.1 0.00 0.00 0.00 60 1009.8
20260505111504 63 5 0.0 2.6 0.00 0.00 0.00 62 1009.6
20260505110114 62 302 0.0 2.6 0.00 0.00 0.00 63 1009.6
20260505101501 62 315 0.0 2.6 0.00 0.00 0.00 62 1009.1
20260505100100 62 266 0.0 2.6 0.00 0.00 0.00 62 1008.9
20260505094558 62 299 0.0 1.7 0.00 0.00 0.00 62 1008.7
20260505093055 62 350 0.0 3.5 0.00 0.00 0.00 62 1008.5
20260505091556 61 337 0.0 2.6 0.00 0.00 0.00 63 1008.4
20260505090054 61 311 0.0 1.7 0.00 0.00 0.00 64 1008.3
20260505084600 60 286 0.0 2.6 0.00 0.00 0.00 64 1008.4
20260505083104 60 340 0.0 1.7 0.00 0.00 0.00 64 1008.3
20260505081548 60 339 0.0 3.5 0.00 0.00 0.00 65 1008.1
20260505080047 59 300 0.0 2.6 0.00 0.00 0.00 68 1008.1
20260505074546 58 44 0.0 0.0 0.00 0.00 0.00 68 1008.0
20260505073050 58 44 0.0 1.7 0.00 0.00 0.00 70 1007.9
20260505071545 59 44 0.0 0.0 0.00 0.00 0.00 69 1007.9
20260505070045 59 44 0.0 0.0 0.00 0.00 0.00 70 1007.9
20260505064612 60 44 0.0 1.7 0.00 0.00 0.00 69 1008.0
20260505063042 60 49 0.0 2.6 0.00 0.00 0.00 70 1007.9
20260505061538 57 269 0.0 0.0 0.00 0.00 0.00 75 1007.9
20260505060037 57 269 0.0 0.0 0.00 0.00 0.00 76 1008.1
20260505054546 57 269 0.0 0.0 0.00 0.00 0.00 77 1008.1
20260505053035 56 269 0.0 0.9 0.00 0.00 0.00 77 1008.1
20260505051532 56 269 0.0 0.0 0.00 0.00 0.00 79 1008.1
20260505041526 55 269 0.0 0.0 0.00 0.00 0.00 81 1008.0
20260505040024 56 269 0.0 0.0 0.00 0.00 0.00 80 1008.0
20260505034527 56 269 0.0 0.0 0.00 0.00 0.00 80 1008.1
20260505033021 57 269 0.0 0.0 0.00 0.00 0.00 77 1008.0
20260505031520 58 269 0.0 1.7 0.00 0.00 0.00 75 1008.0
20260505030037 59 269 0.0 0.9 0.00 0.00 0.00 73 1008.1
20260505024519 60 269 0.0 1.7 0.00 0.00 0.00 69 1008.1
20260505023019 62 269 0.0 0.9 0.00 0.00 0.00 63 1008.1
20260505021522 63 269 0.0 2.6 0.00 0.00 0.00 61 1008.1
20260505020020 63 271 0.9 2.6 0.00 0.00 0.00 62 1008.2
20260505014520 63 271 0.0 0.9 0.00 0.00 0.00 62 1008.3
20260505013019 64 271 0.0 3.5 0.00 0.00 0.00 59 1008.3
20260505011515 64 355 0.0 0.9 0.00 0.00 0.00 59 1008.3
20260505010016 65 355 0.0 1.7 0.00 0.00 0.00 58 1008.3
20260505004528 66 327 0.9 3.5 0.00 0.00 0.00 57 1008.2
20260505003014 67 328 0.0 3.5 0.00 0.00 0.00 55 1008.1
20260505001515 67 344 0.0 2.6 0.00 0.00 0.00 54 1008.0
20260505000016 68 41 0.0 1.7 0.00 0.00 0.00 54 1008.1
20260504234515 68 36 0.9 4.3 0.00 0.00 0.00 54 1008.0
20260504233014 68 57 0.0 1.7 0.00 0.00 0.00 55 1007.9
20260504231511 69 44 0.0 5.2 0.00 0.00 0.00 53 1007.9
20260504230011 70 340 0.0 4.3 0.00 0.00 0.00 51 1007.8
20260504224510 70 5 0.9 3.5 0.00 0.00 0.00 51 1007.7
20260504223010 72 349 0.9 4.3 0.00 0.00 0.00 48 1008.1
20260504221511 71 348 1.7 5.2 0.00 0.00 0.00 48 1008.2
20260504220010 71 311 1.7 6.1 0.00 0.00 0.00 49 1008.2
20260504214510 72 28 0.9 4.3 0.00 0.00 0.00 47 1007.9
20260504213024 73 360 0.9 7.8 0.00 0.00 0.00 47 1007.7
20260504211510 73 36 0.9 8.7 0.00 0.00 0.00 47 1007.8
20260504210008 73 355 2.6 9.6 0.00 0.00 0.00 45 1007.8
20260504204508 72 341 0.9 8.7 0.00 0.00 0.00 47 1007.8
20260504203006 74 12 2.6 7.0 0.00 0.00 0.00 44 1007.7
20260504201505 76 56 2.6 10.4 0.00 0.00 0.00 42 1007.8
20260504200006 75 30 1.7 6.1 0.00 0.00 0.00 44 1008.0
20260504194606 73 338 0.9 5.2 0.00 0.00 0.00 46 1008.1
20260504193059 74 328 1.7 4.3 0.00 0.00 0.00 46 1008.2
20260504191621 73 13 0.9 7.0 0.00 0.00 0.00 45 1008.4
20260504190059 73 355 1.7 10.4 0.00 0.00 0.00 46 1008.7
20260504184602 72 267 1.7 7.8 0.00 0.00 0.00 50 1008.7
20260504183050 72 51 0.9 8.7 0.00 0.00 0.00 49 1009.1
20260504181548 72 27 1.7 7.0 0.00 0.00 0.00 51 1009.2
20260504180047 70 346 1.7 8.7 0.00 0.00 0.00 54 1009.2
20260504174544 70 28 2.6 8.7 0.00 0.00 0.00 49 1009.4
20260504173044 70 26 1.7 10.4 0.00 0.00 0.00 51 1009.6
20260504171543 68 345 1.7 7.8 0.00 0.00 0.00 54 1009.8